AirNav   Air Wisconsin pilot careers
 
 462 users online  

D74 Chorman Airport
Farmington, Delaware, USA

GOING TO FARMINGTON?


FAA INFORMATION EFFECTIVE 11 OCTOBER 2018

Location

FAA Identifier: D74
Lat/Long: 38-50-58.3000N / 075-36-46.0000W
38-50.971667N / 075-36.766667W
38.8495278 / -75.6127778
(estimated)
Elevation: 66 ft. / 20.1 m (surveyed)
Variation: 11W (1990)
From city: 2 miles SW of FARMINGTON, DE
Time zone: UTC -4 (UTC -5 during Standard Time)
Zip code: 19950

Airport Operations

Airport use: Open to the public
Activation date: 10/1991
Control tower: no
ARTCC: WASHINGTON CENTER
FSS: MILLVILLE FLIGHT SERVICE STATION
NOTAMs facility: MIV (NOTAM-D service available)
Attendance: MON-FRI 0830-DUSK
Wind indicator: yes
Segmented circle: no
Lights: FOR LIRL RY 16/34 AND REIL RYS 16 & 34 CALL 302-349-5055 OR 645-9225.
Beacon: white-green (lighted land airport)
FOR ROTG BCN CALL 302-349-5055 OR 645-9225.

Airport Communications

CTAF: 122.9
WX ASOS at GED (15 nm SE): 118.375 (302-856-2927)

Nearby radio navigation aids

VOR radial/distance  VOR name  Freq  Var
ATRr286/18.9WATERLOO VOR/DME112.6009W
ENOr200/23.4SMYRNA VORTAC111.4009W
SBYr003/30.6SALISBURY VORTAC111.2012W

Airport Services

Airframe service: MAJOR
Powerplant service: MAJOR

Runway Information

Runway 16/34

Dimensions: 3588 x 37 ft. / 1094 x 11 m
Surface: asphalt, in excellent condition
LARGE UNSEALED SURFACE CRACKS; ALLIGATOR PATCHES.
Runway edge lights: low intensity
RUNWAY 16  RUNWAY 34
Latitude: 38-51.242333N38-50.702500N
Longitude: 075-36.921500W075-36.613167W
Traffic pattern: leftleft
Markings: basic, in good conditionbasic, in good condition
Runway end identifier lights: yesyes
Obstructions: none24 ft. pole, 250 ft. from runway, 80 ft. right of centerline, 2:1 slope to clear

Airport Ownership and Management from official FAA records

Ownership: Privately-owned
Owner: ALLEN CHORMAN
30475 EAST MILL RUN
MILTON, DE 19968
Phone 302-645-9225
Manager: ALLEN CHORMAN
2057 NINE FT RD
GREENWOOD, DE 11952
Phone 302-349-5055

Airport Operational Statistics

Aircraft based on the field: 19
Single engine airplanes: 17
Multi engine airplanes: 2
    
Aircraft operations: avg 40/day *
90% transient general aviation
10% local general aviation
* for 12-month period ending 17 April 2018

Additional Remarks

AGRICULTURE SPRAYING ACTIVITY ON & INVOF ARPT.
LOADING PAD ADJACENT TO EAST SIDE RY 34.

Instrument Procedures

There are no published instrument procedures at D74.

Some nearby airports with instrument procedures:

KRJD - Ridgely Airpark (14 nm NW)
KGED - Delaware Coastal Airport (15 nm SE)
KDOV - Dover Air Force Base (18 nm N)
N06 - Laurel Airport (18 nm S)
KESN - Easton/Newnam Field Airport (21 nm W)
 
Loc | Ops | Rwys | IFR | FBO | Links
Com | Nav | Svcs | Stats | Notes


 
Area around D74 (Chorman Airport)
 
Road maps at: MapQuest Bing Google
 
Aerial photo
WARNING: Photo may not be current or correct
Aerial photo of D74 (Chorman Airport)
Photo by Chris Connor
Photo taken 09-Jun-2012
looking west.

Do you have a better or more recent aerial photo of Chorman Airport that you would like to share? If so, please send us your photo.

 
Sectional chart

 
Airport distance calculator
Flying to Chorman Airport? Find the distance to fly.

From to D74

Sunrise and sunset
Times for 17-Oct-2018
 Local
(UTC-4)
 Zulu
(UTC)
Morning civil twilight06:4810:48
Sunrise07:1511:15
Sunset18:2122:21
Evening civil twilight18:4822:48

Current date and time
Zulu (UTC)  17-Oct-2018 09:38:44
Local (UTC-4)  17-Oct-2018 05:38:44
 
METAR
KGED 
15nm SE 
170854Z AUTO 20004KT 10SM OVC023 13/11 A3006 RMK AO2 SLP179 60000 T01330111 55010
KDOV 
17nm NE 
170856Z AUTO 22004KT 10SM OVC032 13/10 A3004 RMK AO2 SLP176 T01270095 57011 $
KESN 
21nm W 
170848Z AUTO 00000KT 10SM OVC020 15/12 A3009 RMK AO2 T01470123
KCGE 
27nm SW 
170840Z AUTO 00000KT 10SM OVC015 13/12 A3005 RMK A01
TAF
KDOV 
17nm NE 
170800Z 1708/1814 26009KT 9999 SCT015 BKN250 QNH3003INS BECMG 1712/1713 29012G18KT 9999 FEW300 QNH3002INS BECMG 1716/1717 27015G25KT 9999 SKC QNH3000INS TEMPO 1717/1722 27025G35KT 510003 BECMG 1723/1724 29012G18KT 9999 FEW050 QNH3009INS TX17/1717Z TN06/1808Z
NOTAMs
Click for the latest NOTAMs
NOTAMs are issued by the DoD/FAA and will open in a separate window not controlled by AirNav.

 

 
 

Would you like to see your business listed on this page?

 If your business provides an interesting product or service to pilots, flight crews, aircraft, or users of the Chorman Airport, you should consider listing it here.  To start the listing process, click on the button below
 
Add a business
 

Other Pages about Chorman Airport

Update a link
 
Copyright © AirNav, LLC. All rights reserved. Privacy Policy  Contact